TimeMDT,TemperatureF,Dew PointF,Humidity,Sea Level PressureIn,VisibilityMPH,Wind Direction,Wind SpeedMPH,Gust SpeedMPH,PrecipitationIn,Events,Conditions,WindDirDegrees,DateUTC
12:54 AM,59.0,30.9,35,29.71,10.0,Calm,Calm,-,N/A,,Clear,0,2013-10-01 06:54:00
1:54 AM,55.9,32.0,40,29.73,10.0,West,9.2,-,N/A,,Clear,280,2013-10-01 07:54:00
2:54 AM,51.1,33.1,50,29.76,10.0,West,6.9,-,N/A,,Clear,270,2013-10-01 08:54:00
3:54 AM,50.0,33.1,52,29.79,10.0,WSW,9.2,-,N/A,,Clear,250,2013-10-01 09:54:00
4:54 AM,50.0,33.1,52,29.81,10.0,West,10.4,-,N/A,,Clear,260,2013-10-01 10:54:00
5:54 AM,48.0,33.1,56,29.85,10.0,West,10.4,-,N/A,,Clear,270,2013-10-01 11:54:00
6:54 AM,46.9,33.1,59,29.92,10.0,West,8.1,-,N/A,,Clear,260,2013-10-01 12:54:00
7:54 AM,55.9,33.1,42,29.94,10.0,West,6.9,-,N/A,,Clear,260,2013-10-01 13:54:00
8:54 AM,64.9,35.1,33,29.94,10.0,WNW,3.5,-,N/A,,Clear,290,2013-10-01 14:54:00
9:54 AM,71.1,33.1,25,29.91,10.0,Variable,5.8,-,N/A,,Clear,0,2013-10-01 15:54:00
10:54 AM,73.0,30.9,21,29.90,10.0,NE,10.4,-,N/A,,Clear,50,2013-10-01 16:54:00
11:54 AM,73.9,30.9,21,29.89,10.0,NE,8.1,-,N/A,,Clear,50,2013-10-01 17:54:00
12:54 PM,75.9,30.9,19,29.88,10.0,NNE,10.4,-,N/A,,Clear,30,2013-10-01 18:54:00
1:54 PM,77.0,30.0,18,29.86,10.0,ENE,12.7,18.4,N/A,,Clear,60,2013-10-01 19:54:00
2:54 PM,77.0,30.0,18,29.86,10.0,NE,12.7,18.4,N/A,,Clear,40,2013-10-01 20:54:00
3:54 PM,77.0,30.9,19,29.84,10.0,ENE,9.2,-,N/A,,Clear,70,2013-10-01 21:54:00
4:54 PM,75.0,32.0,21,29.84,10.0,ENE,5.8,-,N/A,,Clear,70,2013-10-01 22:54:00
5:54 PM,73.0,34.0,24,29.86,10.0,East,5.8,-,N/A,,Clear,80,2013-10-01 23:54:00
6:54 PM,66.9,34.0,30,29.88,10.0,ESE,3.5,-,N/A,,Clear,110,2013-10-02 00:54:00
7:54 PM,61.0,33.1,35,29.87,10.0,SSW,4.6,-,N/A,,Clear,210,2013-10-02 01:54:00
8:54 PM,60.1,34.0,38,29.85,10.0,SW,5.8,-,N/A,,Clear,220,2013-10-02 02:54:00
9:54 PM,57.0,35.1,44,29.84,10.0,WSW,8.1,-,N/A,,Clear,250,2013-10-02 03:54:00
10:54 PM,57.0,35.1,44,29.83,10.0,South,3.5,-,N/A,,Clear,170,2013-10-02 04:54:00